Stations météo

réclame
Mon MeteoGroup
Oviedo, Espagne (8015): Température de l'air & dewpoint: 19.02.2018 00:00:00 - 25.02.2018 00:00:00 (CET)Oviedo, Espagne (8015): Vitesse du vent: 19.02.2018 00:00:00 - 25.02.2018 00:00:00 (CET)Oviedo, Espagne (8015): Direction du vent: 19.02.2018 00:00:00 - 25.02.2018 00:00:00 (CET)Oviedo, Espagne (8015): reduced air pressure: 19.02.2018 00:00:00 - 25.02.2018 00:00:00 (CET)Oviedo, Espagne (8015): visibility: 19.02.2018 00:00:00 - 25.02.2018 00:00:00 (CET)Oviedo, Espagne (8015): Quantités de précipitations: 19.02.2018 00:00:00 - 25.02.2018 00:00:00 (CET)
Date & Time tt [°C] td [°C] ff [km/h] ff [knt] dd ppp [hPa] vv [km] rr [mm]
25.02.2018 00:00:00 2,5 0,6 2 1 E 1012,1 7 0,0
24.02.2018 23:00:00 3,1 0,7 5 3 E 1011,5 9 0,0
24.02.2018 22:00:00 3,8 0,8 8 4 E 1011,1 15 -
24.02.2018 21:00:00 4,3 1,0 4 2 E 1010,8 11 0,0
24.02.2018 20:00:00 5,2 1,3 5 3 E 1010,5 13 0,0
24.02.2018 19:00:00 6,4 1,3 11 6 ENE 1009,5 20 -
24.02.2018 18:00:00 7,8 1,6 11 6 NNE 1008,6 17 0,0
24.02.2018 17:00:00 9,3 1,7 8 4 ENE 1008,0 18 0,0
24.02.2018 16:00:00 9,4 1,1 9 5 NE 1007,8 20 -
24.02.2018 15:00:00 10,1 -0,1 4 2 NE 1007,6 19 0,0
24.02.2018 14:00:00 8,6 0,6 8 4 ENE 1008,6 19 0,0
24.02.2018 13:00:00 7,2 0,2 8 4 NNE 1009,0 20 -
24.02.2018 12:00:00 5,1 0,3 5 3 NNE 1009,3 14 0,0
24.02.2018 11:00:00 2,1 -0,2 2 1 WNW 1009,7 10 0,0
24.02.2018 10:00:00 0,3 -1,1 2 1 SW 1009,9 15 -
24.02.2018 09:00:00 -1,0 -2,3 5 3 S 1009,7 12 0,0
24.02.2018 08:00:00 -1,1 -2,5 8 4 S 1009,3 6 0,0
24.02.2018 07:00:00 -0,7 -2,0 5 3 SSE 1008,7 15 -
24.02.2018 06:00:00 -0,7 -1,8 5 3 S 1008,4 6 0,0
24.02.2018 05:00:00 -0,2 -1,3 5 3 S 1008,2 6 0,0
24.02.2018 04:00:00 0,2 -0,9 2 1 SSE 1008,4 6 -
24.02.2018 03:00:00 0,6 -0,7 5 3 SSE 1008,4 6 0,0
24.02.2018 02:00:00 1,0 -0,2 8 4 S 1008,5 - 0,0
24.02.2018 01:00:00 1,4 -0,2 5 3 SSE 1008,7 6 -
24.02.2018 00:00:00 2,1 -0,3 4 2 SE 1008,5 7 0,0
23.02.2018 23:00:00 3,2 0,1 4 2 ENE 1008,3 10 0,0
23.02.2018 22:00:00 3,8 0,1 4 2 E 1008,3 12 -
23.02.2018 21:00:00 4,3 0,4 8 4 E 1008,3 11 0,0
23.02.2018 20:00:00 5,4 0,6 8 4 E 1008,0 13 0,0
23.02.2018 19:00:00 6,5 0,4 9 5 ENE 1007,4 20 -
23.02.2018 18:00:00 7,9 0,4 11 6 NE 1007,1 16 0,0
23.02.2018 17:00:00 9,4 0,3 9 5 ENE 1006,9 18 0,0
23.02.2018 16:00:00 9,7 -1,4 8 4 NE 1007,3 20 -
23.02.2018 15:00:00 9,8 -3,5 9 5 ENE 1007,8 20 0,0
23.02.2018 14:00:00 9,3 -4,3 9 5 E 1008,4 20 0,0
23.02.2018 13:00:00 8,2 -4,3 13 7 E 1009,3 20 -
23.02.2018 12:00:00 6,0 -0,7 9 5 ENE 1010,4 16 0,0
23.02.2018 11:00:00 2,0 1,6 5 3 SE 1011,4 2,2 0,0
23.02.2018 10:00:00 0,0 -0,4 4 2 SE 1012,1 0,1 -
23.02.2018 09:00:00 -0,5 -0,9 5 3 SSE 1012,2 0,1 0,0
23.02.2018 08:00:00 -0,4 -1,0 8 4 SSE 1012,0 0,1 0,0
23.02.2018 07:00:00 -0,5 -1,1 8 4 S 1012,0 0,1 -
23.02.2018 06:00:00 -0,9 -1,6 9 5 S 1012,0 0,1 0,0
23.02.2018 05:00:00 -0,5 -1,5 9 5 S 1011,9 0,1 0,0
23.02.2018 04:00:00 0,4 -1,0 5 3 ESE 1012,3 4,2 -
23.02.2018 03:00:00 0,6 -1,2 5 3 ESE 1012,9 - 0,0
23.02.2018 02:00:00 1,3 -1,3 8 4 E 1013,2 9 0,0
23.02.2018 01:00:00 1,7 -0,9 8 4 E 1013,5 9 -
23.02.2018 00:00:00 2,4 -0,5 11 6 E 1013,7 10 0,0
22.02.2018 23:00:00 3,2 -0,3 8 4 E 1013,8 10 0,0
22.02.2018 22:00:00 3,7 0,0 8 4 E 1013,5 10 -
22.02.2018 21:00:00 4,4 0,4 9 5 E 1013,6 11 0,0
22.02.2018 20:00:00 5,0 0,7 8 4 ENE 1013,5 12 0,0
22.02.2018 19:00:00 6,0 0,7 13 7 ENE 1013,1 10 -
22.02.2018 18:00:00 7,0 0,4 15 8 ENE 1013,0 16 0,0
22.02.2018 17:00:00 8,6 0,8 16 9 NE 1012,8 16 0,0
22.02.2018 16:00:00 8,9 2,9 15 8 NE 1013,2 10 -
22.02.2018 15:00:00 9,0 2,5 11 6 E 1013,4 18 0,0
22.02.2018 14:00:00 8,3 2,5 9 5 E 1014,2 18 0,0
22.02.2018 13:00:00 7,1 1,8 11 6 E 1015,2 15 -
22.02.2018 12:00:00 7,9 1,3 8 4 ESE 1015,4 19 0,0
22.02.2018 11:00:00 4,9 2,9 5 3 SSE 1016,1 19 0,0
22.02.2018 10:00:00 1,9 1,5 5 3 SSE 1016,8 12 -
22.02.2018 09:00:00 1,0 0,9 5 3 SSE 1017,0 11 0,0
22.02.2018 08:00:00 0,7 0,6 8 4 SSE 1016,8 4,8 0,0
22.02.2018 07:00:00 1,3 0,9 5 3 SSE 1016,7 10 -
22.02.2018 06:00:00 1,3 0,7 8 4 S 1016,6 15 0,0
22.02.2018 05:00:00 1,6 0,7 5 3 SSE 1016,6 13 0,0
22.02.2018 04:00:00 1,9 1,2 9 5 ESE 1016,8 18 -
22.02.2018 03:00:00 2,6 1,4 9 5 SE 1017,1 17 0,0
22.02.2018 02:00:00 3,1 1,8 8 4 SE 1017,6 17 0,0
22.02.2018 01:00:00 3,5 2,8 8 4 SE 1018,0 12 -
22.02.2018 00:00:00 4,2 3,2 5 3 E 1018,5 19 0,0
21.02.2018 23:00:00 4,7 3,8 9 5 E 1018,6 16 0,0
21.02.2018 22:00:00 5,1 4,2 13 7 E 1018,5 10 -
21.02.2018 21:00:00 5,6 4,9 5 3 E 1018,5 20 0,4
21.02.2018 20:00:00 6,2 5,0 5 3 E 1018,3 18 0,0
21.02.2018 19:00:00 6,8 4,9 9 5 E 1018,0 8 -
21.02.2018 18:00:00 6,9 5,4 11 6 E 1017,9 20 0,0
21.02.2018 17:00:00 7,4 4,7 13 7 NE 1018,0 20 0,0
21.02.2018 16:00:00 8,6 5,0 8 4 E 1018,0 15 -
21.02.2018 15:00:00 8,3 5,8 11 6 E 1018,7 19 0,0
21.02.2018 14:00:00 7,7 5,2 11 6 ESE 1019,5 14 0,2
21.02.2018 13:00:00 9,0 4,4 4 2 E 1020,0 8 -
21.02.2018 12:00:00 8,3 5,2 5 3 SSE 1020,8 20 0,0
21.02.2018 11:00:00 7,9 4,1 8 4 E 1021,1 18 0,0
21.02.2018 10:00:00 6,6 4,9 4 2 SE 1021,2 15 -
21.02.2018 09:00:00 6,2 4,8 5 3 ESE 1021,3 17 0,0
21.02.2018 08:00:00 6,3 4,8 9 5 ENE 1021,2 17 0,0
21.02.2018 07:00:00 6,4 5,3 4 2 WNW 1021,1 10 -
21.02.2018 06:00:00 6,4 5,7 4 2 SSW 1021,6 13 0,0
21.02.2018 05:00:00 6,7 6,0 4 2 S 1022,1 15 0,0
21.02.2018 04:00:00 6,9 4,9 5 3 NE 1022,7 17 -
21.02.2018 03:00:00 6,8 5,4 2 1 ESE 1023,2 18 0,0
21.02.2018 02:00:00 7,2 6,3 9 5 NNE 1023,2 17 0,2
21.02.2018 01:00:00 8,0 8,0 9 5 N 1023,4 3,8 -
21.02.2018 00:00:00 8,1 8,1 8 4 N 1023,5 2,4 0,4
20.02.2018 23:00:00 8,0 8,0 4 2 NW 1023,8 0,2 2,0
20.02.2018 22:00:00 8,0 8,0 8 4 WNW 1024,0 0,1 -
20.02.2018 21:00:00 8,0 8,0 5 3 WNW 1024,3 0,1 0,2
20.02.2018 20:00:00 8,1 8,1 4 2 W 1024,5 0,1 0,0
20.02.2018 19:00:00 8,1 8,1 5 3 WNW 1024,6 0,1 -
20.02.2018 18:00:00 8,1 8,1 5 3 WNW 1024,5 0,1 0,2
20.02.2018 17:00:00 8,3 8,2 5 3 W 1024,9 1,7 0,6
20.02.2018 16:00:00 8,6 8,3 5 3 W 1025,2 2,0 -
20.02.2018 15:00:00 9,4 7,5 4 2 NNW 1025,4 9 0,0
20.02.2018 14:00:00 9,8 7,0 5 3 NW 1025,7 20 0,0
20.02.2018 13:00:00 10,2 8,1 2 1 WNW 1026,0 20 -
20.02.2018 12:00:00 - - - - - - - -
20.02.2018 11:00:00 - - - - - - - -
20.02.2018 10:00:00 6,9 6,9 5 3 NNW 1026,6 2,0 -
20.02.2018 09:00:00 6,6 6,6 5 3 W 1025,8 20 0,0
20.02.2018 08:00:00 6,8 6,8 8 4 W 1025,4 4,0 0,6
20.02.2018 07:00:00 7,5 7,5 9 5 W 1025,2 5 -
20.02.2018 06:00:00 7,9 7,9 5 3 WNW 1025,0 3,3 0,2
20.02.2018 05:00:00 7,9 7,9 8 4 SW 1025,1 8 0,0
20.02.2018 04:00:00 8,2 8,2 5 3 W 1025,1 9 -
20.02.2018 03:00:00 8,2 8,2 5 3 WNW 1025,1 0,1 0,2
20.02.2018 02:00:00 8,3 8,3 5 3 WNW 1024,9 0,1 0,0
20.02.2018 01:00:00 8,5 8,5 8 4 W 1024,8 0,1 -
20.02.2018 00:00:00 8,4 8,4 5 3 W 1024,7 0,2 0,2
19.02.2018 23:00:00 8,4 8,4 4 2 W 1024,8 2,6 0,2
19.02.2018 22:00:00 8,4 8,4 5 3 W 1024,8 0,1 -
19.02.2018 21:00:00 8,6 8,6 5 3 WNW 1024,8 0,4 0,2
19.02.2018 20:00:00 8,7 8,7 4 2 WNW 1024,6 9 0,0
19.02.2018 19:00:00 9,0 9,0 5 3 WNW 1024,5 3,0 -
19.02.2018 18:00:00 9,4 9,3 4 2 WNW 1024,1 4,0 0,4
19.02.2018 17:00:00 9,6 9,0 8 4 NNW 1024,0 9 0,2
19.02.2018 16:00:00 9,6 9,5 9 5 NNW 1023,9 5 -
19.02.2018 15:00:00 9,8 9,8 5 3 WNW 1023,8 7 0,6
19.02.2018 14:00:00 9,3 9,3 5 3 WNW 1024,1 8 0,4
19.02.2018 13:00:00 9,1 9,1 9 5 WNW 1024,5 0,9 -
19.02.2018 12:00:00 8,5 8,5 5 3 WNW 1024,7 0,4 0,4
19.02.2018 11:00:00 8,0 8,0 4 2 WNW 1024,5 0,9 0,6
19.02.2018 10:00:00 7,6 7,6 4 2 WNW 1024,5 0,6 -
19.02.2018 09:00:00 7,6 7,3 5 3 W 1024,5 4,2 0,6
19.02.2018 08:00:00 7,6 7,3 8 4 WNW 1024,1 19 0,2
19.02.2018 07:00:00 7,6 7,3 5 3 WNW 1023,9 15 -
19.02.2018 06:00:00 7,5 7,2 8 4 WNW 1023,9 10 0,0
19.02.2018 05:00:00 7,8 7,4 8 4 WNW 1023,6 19 0,0
19.02.2018 04:00:00 7,8 7,5 5 3 W 1023,9 9 -
19.02.2018 03:00:00 8,0 7,9 5 3 SSW 1024,3 - 0,0
19.02.2018 02:00:00 8,1 8,0 4 2 W 1024,7 11 0,0
19.02.2018 01:00:00 8,2 8,1 2 1 WNW 1025,1 7 -
19.02.2018 00:00:00 8,4 8,1 4 2 WSW 1025,5 7 0,0

tt = Température de l'air
td = dewpoint
ff = Vitesse du vent
dd = Direction du vent
ppp = reduced air pressure
vv = visibility
rr = Quantités de précipitations

stations d'obs. à proximité